Regional Weather Roundup
Issued by NWS

Home | Current Version | Previous Version | Graphics & Text | Print | Product List | Glossary On
Versions: 1 2 3 4 5 6 7 8 9 10 11 12 13 14 15 16 17 18 19 20 21 22 23 24 25 26 27 28 29 30 31 32 33 34 35 36 37 38 39 40 41 42 43 44 45 46 47 48 49 50
000
ASUS43 KIND 050709
RWRIN

WEATHER ROUNDUP FOR INDIANA
NATIONAL WEATHER SERVICE INDIANAPOLIS IN
200 AM EST THU MAR 05 2015

NOTE: "FAIR" INDICATES FEW OR NO CLOUDS BELOW 12,000 FEET WITH NO
SIGNIFICANT WEATHER AND/OR OBSTRUCTIONS TO VISIBILITY.

* - STATION DOES NOT REPORT WEATHER SUCH AS PRECIPITATION OR FOG.

+ - STATION NOT QUALITY CONTROLLED BY THE NATIONAL WEATHER SERVICE.
    USE DATA WITH CAUTION...ESPECIALLY DEWPOINT AND RELATIVE
    HUMIDITY OBSERVATIONS.

INZ001>003-010>013-019-020-050800-
NORTHWEST INDIANA

CITY           SKY/WX    TMP DP  RH WIND       PRES   REMARKS
GARY /AIRPORT/ CLEAR     15  -3  45 NW8       30.36R WCI   3
KNOX *+          N/A     14  -8  37 NW7       30.33R WCI   4
LA PORTE +     PTCLDY    16   5  60 NW3       30.33R
MICHIGAN CITY+ PTCLDY    18   0  45 NW7       30.34R WCI   8
MONTICELLO +   CLOUDY    15   8  72 NW9       30.32R WCI   3
RENSSELAER +   PTCLDY    14   7  73 NW6       30.34S WCI   5
VALPARAISO     CLEAR     10   0  63 W6        30.33R WCI   0

$$

LMZ046-743>745-050800-
SOUTHERN LAKE MICHIGAN

STATION/POSITION TIME  TEMP WIND        PRES
                       AIR  DIR/SP/G
                 (UTC) (F)  (DEG/KT/KT) (MB)
MICHIGAN CITY    0700   15  280/ 12/ 14   N/A

$$

INZ004-005-014>016-021>024-050800-
NORTH CENTRAL INDIANA

CITY           SKY/WX    TMP DP  RH WIND       PRES   REMARKS
GOSHEN         MOCLDY    15   5  64 N10       30.30R WCI   2
LOGANSPORT +   CLOUDY    18   7  62 NW9       30.31R WCI   6
PERU/GRISSOM   CLOUDY    18   5  57 NW7       30.28R WCI   9
ROCHESTER +    MOCLDY    21   9  58 NW9       30.31R WCI  11
SOUTH BEND     CLOUDY    17   6  62 NW7       30.32R WCI   8
WARSAW +       CLOUDY    18   9  68 NW6       30.28S WCI   9

$$

INZ006>009-017-018-025>027-050800-
NORTHEAST INDIANA

CITY           SKY/WX    TMP DP  RH WIND       PRES   REMARKS
ANGOLA *+      CLEAR     12   1  62 N8        30.27R WCI   1
AUBURN +       CLOUDY    18   3  53 N7        30.28S WCI   8
FORT WAYNE     CLOUDY    18   7  62 N8        30.29S WCI   8
HUNTINGTON +   CLOUDY    18   4  53 NW3       30.29R

$$

INZ028-029-035-036-043>045-051>053-050800-
WEST CENTRAL INDIANA

CITY           SKY/WX    TMP DP  RH WIND       PRES   REMARKS
CRAWFORDSVL +  MOCLDY    14  -1  51 N9        30.31S WCI   2
GREENCASTLE +  CLOUDY    18   3  53 N9        30.31R WCI   6
LAFAYETTE      MOCLDY    14   4  64 NW13      30.34R WCI   0
TERRE HAUTE    CLOUDY    18   4  54 N13       30.34R WCI   5

$$

INZ030>032-037>040-046>048-054>057-064-065-050800-
CENTRAL INDIANA

CITY           SKY/WX    TMP DP  RH WIND       PRES   REMARKS
CP ATTERBURY + CLOUDY    21  10  63 N13       30.29R WCI   9
FRANKFORT +    MOCLDY    16   8  68 NW12      30.31R WCI   3
GREENWOOD *+   CLOUDY    19   7  58 N9        30.29R WCI   9
INDIANAPOLIS   CLOUDY    18   8  65 N9        30.29R WCI   7
-EAGLE CREEK   CLOUDY    17   8  67 N9        30.29R WCI   6
KOKOMO *+        N/A    N/A N/A N/A MISG        N/A
MARION +       CLOUDY    18   6  60 N7        30.29R WCI   9
MT COMFORT *+  CLOUDY    19   1  45 N12       30.28R WCI   7
SHELBYVILLE    CLOUDY    21   9  59 N10       30.28R WCI  10
ZIONSVILLE +   CLOUDY    17   8  68 NW10      30.29R WCI   5

$$

INZ033-034-041-042-049-050-058-059-050800-
EAST CENTRAL INDIANA

CITY           SKY/WX    TMP DP  RH WIND       PRES   REMARKS
MUNCIE         CLOUDY    19   9  65 N8        30.26S WCI   9

$$

INZ060-061-067>069-081>083-085>088-050800-
SOUTHWEST INDIANA

CITY           SKY/WX    TMP DP  RH WIND       PRES   REMARKS
EVANSVILLE     CLOUDY    20   7  57 N10       30.32S WCI   9
HUNTINGBURG *+ CLOUDY    19   9  63 N12       30.30R WCI   7
WASHINGTON +   CLOUDY    19   6  57 N13       30.31S WCI   7

$$

INZ062-063-066-070>080-084-089>092-050800-
SOUTH CENTRAL AND SOUTHEAST INDIANA

CITY           SKY/WX    TMP DP  RH WIND       PRES   REMARKS
BEDFORD +      CLOUDY    19  12  73 N8        30.27R WCI   9
BLOOMINGTON    CLOUDY    19   9  65 N14       30.28R WCI   6
NORTH VERNON + CLOUDY    21   9  58 N12       30.27R WCI   9
SEYMOUR +      CLOUDY    23  10  58 N16G24    30.28R WCI  10

$$



USA.gov is the U.S. government's official web portal to all federal, state and local government web resources and services.